This is the latest recevied weather packets stored in our database for station/object CT2IRJ-11. If no packets are shown the sender has not sent any weather packets the latest 10 day(s).
| Time | Temp. | Humidity | Pressure | Rain* | Wind** | Luminosity | Snow |
|---|---|---|---|---|---|---|---|
| 1777297112 | 31.67° C | 36% | 1011.9 hPa | 0 mm | - | 204 W/m² | - |
| 1777296810 | 33.33° C | 33% | 1011.9 hPa | 0 mm | - | 187 W/m² | - |
| 1777296510 | 33.89° C | 33% | 1011.9 hPa | 0 mm | - | 808 W/m² | - |
| 1777296210 | 33.33° C | 32% | 1012.2 hPa | 0 mm | - | 790 W/m² | - |
| 1777295910 | 33.33° C | 32% | 1012.2 hPa | 0 mm | - | 796 W/m² | - |
| 1777295610 | 32.78° C | 33% | 1012.2 hPa | 0 mm | - | 747 W/m² | - |
| 1777295310 | 32.22° C | 33% | 1012.2 hPa | 0 mm | - | 675 W/m² | - |
| 1777295010 | 31.67° C | 34% | 1012.2 hPa | 0 mm | - | 580 W/m² | - |
| 1777294710 | 31.11° C | 35% | 1012.2 hPa | 0 mm | - | 589 W/m² | - |
| 1777294410 | 30.56° C | 37% | 1012.2 hPa | 0 mm | - | 643 W/m² | - |
| 1777294110 | 31.11° C | 39% | 1012.5 hPa | 0 mm | - | 684 W/m² | - |
| 1777293809 | 31.11° C | 37% | 1012.5 hPa | 0 mm | - | 656 W/m² | - |
| 1777293509 | 31.67° C | 36% | 1012.9 hPa | 0 mm | - | 650 W/m² | - |
| 1777293210 | 32.22° C | 34% | 1012.9 hPa | 0 mm | - | 682 W/m² | - |
| 1777292909 | 31.67° C | 38% | 1012.9 hPa | 0 mm | - | 706 W/m² | - |
| 1777292611 | 31.11° C | 40% | 1013.2 hPa | 0 mm | - | 693 W/m² | - |
| 1777292309 | 31.11° C | 41% | 1013.2 hPa | 0 mm | - | 675 W/m² | - |
| 1777292009 | 31.11° C | 39% | 1012.9 hPa | 0 mm | - | 621 W/m² | - |
| 1777291709 | 30.56° C | 40% | 1012.9 hPa | 0 mm | - | 646 W/m² | - |
| 1777291413 | 31.11° C | 42% | 1013.2 hPa | 0 mm | - | 681 W/m² | - |
| 1777291110 | 30° C | 42% | 1013.2 hPa | 0 mm | - | 649 W/m² | - |
| 1777290810 | 28.89° C | 44% | 1013.2 hPa | 0 mm | - | 639 W/m² | - |
| 1777290510 | 28.89° C | 47% | 1013.2 hPa | 0 mm | - | 622 W/m² | - |
| 1777290210 | 29.44° C | 45% | 1013.5 hPa | 0 mm | - | 623 W/m² | - |
| 1777289910 | 29.44° C | 45% | 1013.5 hPa | 0 mm | - | 646 W/m² | - |
* Rain latest hour (hover to see other rain measurements)
** Current wind speed in m/s (hover to see current wind gust speed)